User: anonymous   Login
Location: Vancouver
(49.2827°N, 123.1207°W)
Time: 00:20:54
(UTC-07:00)
Language:

ISS - Orbit

View from above orbital plane
View from above orbital plane
View from above satellite
View from above satellite

Ground track
Ground track

The orbit is defined by the following mean orbital elements,

1 25544U          26139.81053376 +.00000000 +00000-0 +10220-3 0 00005
2 25544  51.6327  80.5761 0007549  76.5627 283.6202 15.49275598    09
Epoch (UTC): 19 May 2026 19:27:10
Eccentricity: 0.0007549
inclination: 51.6327°
perigee height: 414 km
apogee height: 424 km
right ascension of ascending node: 80.5761°
argument of perigee: 76.5627°
revolutions per day: 15.49275598
mean anomaly at epoch: 283.6202°

The dashed part of the orbit path shows where the satellite is in the earth's shadow,  

DLR